Other Public Products
Issued by NWS Grand Forks, ND

Home | Current Version | Previous Version | Graphics & Text | Print | Product List | Glossary On
Versions: 1 2 3 4 5 6 7 8 9 10 11 12 13 14 15 16 17 18 19 20 21 22 23 24 25 26 27 28 29 30 31 32 33 34 35 36 37 38 39 40 41 42 43 44 45 46 47 48 49 50
000
FPUS83 KFGF 060610
OPUFGF
PRAIRIE TO PINES WEATHER ROUNDUP
NATIONAL WEATHER SERVICE EASTERN NORTH DAKOTA/GRAND FORKS ND
100 AM CDT WED MAY 06 2015

 **SATELLITE DATA USED TO AUGMENT SKY COVER AT AUTOMATED STATIONS**
 *****  WEATHER ACROSS EASTERN NORTH DAKOTA  *****

CITY           SKY/WX    TMP DP  RH WIND       PRES   REMARKS
GRAND FORKS    CLEAR     62  52  69 SE10      29.96F
6HR MIN TEMP:  62; 6HR MAX TEMP:  76;

GRAND FORKS AF CLEAR     61  52  71 S10       29.96S
GRAND CITY NWS   N/A     59 N/A N/A S14         N/A
BUXTON         NOT AVBL
DEVILS LAKE    CLEAR     61  52  72 SE15      29.91S
6HR MIN TEMP:  61; 6HR MAX TEMP:  73;

FARGO          MOCLDY    64  53  67 S17G26    29.97F
6HR MIN TEMP:  64; 6HR MAX TEMP:  76;

WAHPETON ARPT  CLOUDY    59  52  77 SE14G24   30.00F
$$

 *****  WEATHER ACROSS CENTRAL AND WESTERN NORTH DAKOTA  *****

CITY           SKY/WX    TMP DP  RH WIND       PRES   REMARKS
JAMESTOWN      CLOUDY    62  55  77 SE13      29.92S
6HR MIN TEMP:  62; 6HR MAX TEMP:  75;

BISMARCK       MOCLDY    60  53  77 S15       29.86R
6HR MIN TEMP:  56; 6HR MAX TEMP:  77;

MINOT          CLEAR     52  40  63 E7        29.82F
6HR MIN TEMP:  52; 6HR MAX TEMP:  76;

MINOT AFB      CLEAR     51  40  64 SE8       29.80
6HR MIN TEMP:  51; 6HR MAX TEMP:  78;

GARRISON         N/A     57  48  72 S9        29.83R
6HR MIN TEMP:  56; 6HR MAX TEMP:  75;

WILLISTON      CLEAR     62  50  64 SE7       29.76F
6HR MIN TEMP:  60; 6HR MAX TEMP:  78;

DICKINSON      PTCLDY    55  50  83 SE14      29.78S
6HR MIN TEMP:  53; 6HR MAX TEMP:  70;

HETTINGER      CLOUDY    56  51  84 SE15      29.81F
6HR MIN TEMP:  56; 6HR MAX TEMP:  64;

$$

 *****  OTHER OBSERVATIONS NORTHEAST NORTH DAKOTA  *****

CITY           SKY/WX    TMP DP  RH WIND       PRES   REMARKS
WALHALLA       FAIR      63  45  51 S12       29.94S
LANGDON        FAIR      61  50  67 S16       29.94S
CAVALIER       FAIR      64  48  55 S9        29.95S
GRAFTON        FAIR      63  52  67 S14       29.96F
CANDO          FAIR      59  50  72 SE15      29.91S
FORT TOTTEN      N/A     62  53  71 SE10      29.95S
ROLLA          NOT AVBL
RUGBY          NOT AVBL
 ***** THE ABOVE OBSERVATIONS ARE NON NWS ARE NOT QUALITY
        CONTROLLED AND MAY MIS-REPORT RAIN FOR SNOW...
$$

 *****  OTHER OBSERVATIONS SOUTHEAST NORTH DAKOTA *****

CITY           SKY/WX    TMP DP  RH WIND       PRES   REMARKS
COOPERSTOWN    NOT AVBL
VALLEY CITY    CLOUDY    59  59 100 SE16      29.95F
OAKES            N/A     59  59 100 SE12      29.94F
GWINNER          N/A     61  57  88 SE16      29.97F
BUFFALO        NOT AVBL
WYNDMERE         N/A     61  55  82 SE12        N/A
 ***** THE ABOVE OBSERVATIONS ARE NON NWS ARE NOT QUALITY
       CONTROLLED AND MAY MIS-REPORT RAIN FOR SNOW...
$$

  *****  WEATHER ACROSS NORTHERN MINNESOTA  *****

CITY           SKY/WX    TMP DP  RH WIND       PRES   REMARKS
FLAG ISLAND    PTCLDY    59  43  55 SE6       30.02S
WARROAD        PTCLDY    64  41  42 S12       30.03S
ROSEAU         CLEAR     63  37  39 S13       30.01S
HALLOCK        CLEAR     61  39  44 SE12      29.96F
THF RVR FALLS  PTCLDY    55  39  54 SE8       30.02S
6HR MIN TEMP:  55; 6HR MAX TEMP:  75;

HALSTAD        NOT AVBL
FOSSTON        PTCLDY    61  43  51 SE9       30.03S
BAUDETTE       PTCLDY    53  33  46 SE7       30.06R
6HR MIN TEMP:  53; 6HR MAX TEMP:  73;

WASKISH        CLEAR     55  39  54 CALM      30.07S
CROOKSTON      CLEAR     59  46  63 S9        30.00S
$$
  *****  WEATHER ACROSS CENTRAL AND WEST MINNESOTA  *****

CITY           SKY/WX    TMP DP  RH WIND       PRES   REMARKS
BEMIDJI        PTCLDY    59  40  48 SE7       30.05F
PARK RAPIDS    CLOUDY    62  46  55 SE13      30.05F
6HR MIN TEMP:  61; 6HR MAX TEMP:  74;

WADENA         CLOUDY    61  50  67 SE16      30.04F
DETROIT LAKES  MOCLDY    61  52  72 SE14      30.03F
MOORHEAD       MOCLDY    63  54  72 S17         N/A
FERGUS FALLS   CLOUDY    61  54  77 SE15G21   30.03S
ELBOW LAKE     CLOUDY    58  55  88 SE16      30.03F
6HR MIN TEMP:  58; 6HR MAX TEMP:  67;

MORRIS MN      CLOUDY    57  54  88 SE18      30.02F
STAPLES        CLOUDY    61  50  67 SE12G20   30.07S
WHEATON        CLOUDY    55  52  88 SE17      30.02F
$$
  *****  WEATHER ELSEWHERE ACROSS MINNESOTA  *****

CITY           SKY/WX    TMP DP  RH WIND       PRES   REMARKS
DULUTH         PTCLDY    49  27  42 E9        30.15F
6HR MIN TEMP:  48; 6HR MAX TEMP:  64;

INTRNTL FALLS  CLEAR     54  30  40 S8        30.10S
6HR MIN TEMP:  49; 6HR MAX TEMP:  72;

ELY            CLEAR     46  27  46 SE6       30.16S
CLOQUET        MOCLDY    46  30  53 E3        30.15S
BRAINERD       CLOUDY    60  45  57 SE10G18   30.10S
6HR MIN TEMP:  60; 6HR MAX TEMP:  69;

HIBBING        PTCLDY    45  25  45 SE6       30.13F
6HR MIN TEMP:  45; 6HR MAX TEMP:  70;

ALEXANDRIA     CLOUDY    57  53  86 SE18      30.07S
6HR MIN TEMP:  57; 6HR MAX TEMP:  66;

SAINT CLOUD    CLOUDY    57  52  83 SE13      30.09F
6HR MIN TEMP:  57; 6HR MAX TEMP:  67; 6HR PCP: TRACE;

MINNEAPOLIS    CLOUDY    56  53  90 SE14      30.12F
6HR MIN TEMP:  56; 6HR MAX TEMP:  64; 6HR PCP:  0.02;

$$

  *****  WEATHER ACROSS SOUTH DAKOTA  *****

CITY           SKY/WX    TMP DP  RH WIND       PRES   REMARKS
SIOUX FALLS    CLOUDY    62  60  93 SE16      29.97F FOG
6HR MIN TEMP:  62; 6HR MAX TEMP:  68;

BROOKINGS      CLOUDY    59  57  94 SE17      30.00S
WATERTOWN      CLOUDY    60  57  89 SE13G22   29.97F
6HR MIN TEMP:  59; 6HR MAX TEMP:  65; 6HR PCP: TRACE;

HURON          MOCLDY    61  58  90 SE13      29.91F
6HR MIN TEMP:  60; 6HR MAX TEMP:  64; 6HR PCP: TRACE;

SISSETON         N/A     58  55  90 S18       29.98F
ABERDEEN       MOCLDY    61  56  83 SE10      29.92F
6HR MIN TEMP:  60; 6HR MAX TEMP:  73;

MITCHELL       MOCLDY    63  59  87 SE14      29.91F
PIERRE         MOCLDY    56  55  97 SE8       29.85F FOG
6HR MIN TEMP:  56; 6HR MAX TEMP:  62; 6HR PCP: TRACE;

MOBRIDGE       HVY RAIN  59  57  93 SE7       29.85F FOG
RAPID CITY     CLOUDY    56  51  84 S9        29.81F
6HR MIN TEMP:  56; 6HR MAX TEMP:  64;

$$

  *****  SOME WEATHER IN NEARBY STATES *****

CITY           SKY/WX    TMP DP  RH WIND       PRES   REMARKS
GLASGOW MT     MOCLDY    65  49  56 SE14      29.67R
6HR MIN TEMP:  64; 6HR MAX TEMP:  79;

GREAT FALLS MT CLOUDY    52  46  80 CALM      29.80R
6HR MIN TEMP:  51; 6HR MAX TEMP:  58; 6HR PCP: TRACE;

CHEYENNE WY    CLOUDY    48  46  93 NE5       29.79F
6HR MIN TEMP:  47; 6HR MAX TEMP:  49; 6HR PCP:  0.08;

SCOTTSBLUFF NE CLOUDY    53  50  90 SE14      29.77F
6HR MIN TEMP:  53; 6HR MAX TEMP:  55; 6HR PCP:  0.08;

OMAHA NE       CLOUDY    67  58  72 SE15      29.98S
6HR MIN TEMP:  67; 6HR MAX TEMP:  75; 6HR PCP: TRACE;

DES MOINES IA  CLOUDY    67  63  87 E9        30.05F FOG
6HR MIN TEMP:  67; 6HR MAX TEMP:  77;

DAVENPORT IA   MOCLDY    57  54  89 E12       30.15F FOG
6HR MIN TEMP:  57; 6HR MAX TEMP:  64;

CHICAGO IL     CLOUDY    47  46  97 NE7       30.21S FOG
6HR MIN TEMP:  47; 6HR MAX TEMP:  50;

EAU CLAIRE WI  LGT RAIN  52  47  83 SE7       30.18S
6HR MIN TEMP:  52; 6HR MAX TEMP:  64; 6HR PCP:  0.01;

LA CROSSE WI   CLOUDY    56  52  86 SE6       30.17F
6HR MIN TEMP:  56; 6HR MAX TEMP:  57; 6HR PCP:  0.13;

$$

  *****  SOME NATIONAL WEATHER *****

CITY           SKY/WX    TMP DP  RH WIND       PRES   REMARKS
LA GUARDIA NY  CLOUDY    65  51  60 N7        30.19S


USA.gov is the U.S. government's official web portal to all federal, state and local government web resources and services.